FW1304 Weather Reports


Display with metric or nautical units.
time (UTC)temp
F
wind
direction
speed
MPH
gust
MPH
rain 1hr
in
rain 24hr
in
rain mn
in
humidity
%
barometer
mb
20260507192902 56 314 0.0 4.0 0.00 0.00 0.00 29 1008.6
20260507192344 56 296 0.0 4.0 0.00 0.00 0.00 29 1008.6
20260507191840 56 303 0.0 0.0 0.00 0.00 0.00 31 1008.5
20260507191323 55 32 0.0 0.0 0.00 0.00 0.00 29 1008.6
20260507190820 55 355 0.0 0.0 0.00 0.00 0.00 28 1008.6
20260507190328 55 274 0.0 0.0 0.00 0.00 0.00 31 1008.6
20260507185838 55 58 0.0 1.0 0.00 0.00 0.00 29 1008.6
20260507185326 55 297 0.0 1.0 0.00 0.00 0.00 29 1008.7
20260507184823 55 297 0.0 5.0 0.00 0.00 0.00 29 1008.7
20260507184324 55 277 0.0 5.0 0.00 0.00 0.00 30 1008.7
20260507183833 55 292 0.0 4.0 0.00 0.00 0.00 28 1008.6
20260507183329 55 186 0.0 4.0 0.00 0.00 0.00 30 1008.7
20260507182830 54 205 0.0 4.0 0.00 0.00 0.00 32 1008.8
20260507182317 54 250 0.0 4.0 0.00 0.00 0.00 31 1008.9
20260507181814 54 294 0.0 0.0 0.00 0.00 0.00 31 1009.0
20260507181318 54 38 327.0 327.0 0.00 0.00 0.00 30 1008.9
20260507180836 54 346 0.0 5.0 0.00 0.00 0.00 31 1009.0
20260507180324 53 290 0.0 5.0 0.00 0.00 0.00 30 1009.0
20260507175826 53 239 0.0 2.0 0.00 0.00 0.00 31 1009.1
20260507175323 53 274 0.0 2.0 0.00 0.00 0.00 30 1009.2
20260507174827 53 292 0.0 1.0 0.00 0.00 0.00 31 1009.2
20260507174330 53 269 0.0 1.0 0.00 0.00 0.00 32 1009.3
20260507173846 53 41 0.0 2.0 0.00 0.00 0.00 31 1009.4
20260507173320 53 338 0.0 2.0 0.00 0.00 0.00 30 1009.5
20260507172816 53 275 0.0 4.0 0.00 0.00 0.00 31 1009.5
20260507172401 53 252 0.0 4.0 0.00 0.00 0.00 32 1009.6
20260507171828 53 204 0.0 2.0 0.00 0.00 0.00 31 1009.6
20260507171333 52 187 0.0 0.0 0.00 0.00 0.00 32 1009.6
20260507170820 52 253 0.0 1.0 0.00 0.00 0.00 33 1009.7
20260507170317 52 258 0.0 1.0 0.00 0.00 0.00 31 1009.7
20260507165819 52 259 0.0 0.0 0.00 0.00 0.00 34 1009.7
20260507165336 52 210 0.0 0.0 0.00 0.00 0.00 33 1009.8
20260507164823 51 256 0.0 0.0 0.00 0.00 0.00 34 1009.8
20260507164347 51 254 0.0 0.0 0.00 0.00 0.00 32 1009.9
20260507163823 51 318 0.0 0.0 0.00 0.00 0.00 33 1009.9
20260507163323 51 5 0.0 0.0 0.00 0.00 0.00 33 1009.9
20260507162836 51 248 0.0 0.0 0.00 0.00 0.00 34 1010.0
20260507162320 51 297 0.0 0.0 0.00 0.00 0.00 33 1010.1
20260507161837 51 348 0.0 0.0 0.00 0.00 0.00 34 1010.1
20260507161318 51 5 0.0 0.0 0.00 0.00 0.00 37 1010.2
20260507160826 50 342 0.0 0.0 0.00 0.00 0.00 34 1010.2
20260507160323 50 92 0.0 0.0 0.00 0.00 0.00 34 1010.3
20260507155825 50 5 0.0 0.0 0.00 0.00 0.00 37 1010.4
20260507155314 50 276 0.0 0.0 0.00 0.00 0.00 35 1010.3
20260507154830 50 207 0.0 0.0 0.00 0.00 0.00 40 1010.3
20260507154313 49 254 0.0 0.0 0.00 0.00 0.00 40 1010.3
20260507153822 49 259 0.0 4.0 0.00 0.00 0.00 39 1010.3
20260507153318 49 236 0.0 0.0 0.00 0.00 0.00 41 1010.3
20260507152821 49 261 0.0 0.0 0.00 0.00 0.00 41 1010.3
20260507152337 49 192 0.0 0.0 0.00 0.00 0.00 45 1010.3
20260507151825 48 192 0.0 0.0 0.00 0.00 0.00 42 1010.3
20260507151348 48 225 0.0 0.0 0.00 0.00 0.00 44 1010.3
20260507150843 48 246 0.0 0.0 0.00 0.00 0.00 44 1010.3
20260507150335 48 260 0.0 0.0 0.00 0.00 0.00 46 1010.4
20260507145818 48 226 0.0 0.0 0.00 0.00 0.00 44 1010.4
20260507145325 48 239 0.0 0.0 0.00 0.00 0.00 46 1010.4
20260507144823 48 246 0.0 0.0 0.00 0.00 0.00 47 1010.4
20260507144346 47 205 0.0 0.0 0.00 0.00 0.00 46 1010.5
20260507143842 47 235 0.0 0.0 0.00 0.00 0.00 46 1010.5
20260507143330 47 248 0.0 0.0 0.00 0.00 0.00 49 1010.5
20260507142840 46 275 0.0 0.0 0.00 0.00 0.00 50 1010.5
20260507142326 46 275 0.0 0.0 0.00 0.00 0.00 53 1010.5
20260507141844 45 242 0.0 0.0 0.00 0.00 0.00 51 1010.5
20260507141319 45 260 0.0 0.0 0.00 0.00 0.00 53 1010.6
20260507140816 45 270 0.0 0.0 0.00 0.00 0.00 52 1010.6
20260507140324 45 259 0.0 0.0 0.00 0.00 0.00 55 1010.6
20260507135836 44 265 0.0 0.0 0.00 0.00 0.00 57 1010.6
20260507135323 44 257 0.0 0.0 0.00 0.00 0.00 58 1010.5
20260507134819 43 248 0.0 0.0 0.00 0.00 0.00 60 1010.6
20260507134340 43 233 0.0 0.0 0.00 0.00 0.00 62 1010.6
20260507133835 42 249 0.0 0.0 0.00 0.00 0.00 63 1010.7
20260507133322 42 259 0.0 0.0 0.00 0.00 0.00 65 1010.7
20260507132831 41 261 0.0 0.0 0.00 0.00 0.00 68 1010.7
20260507132318 40 263 0.0 0.0 0.00 0.00 0.00 70 1010.7
20260507131834 40 250 0.0 0.0 0.00 0.00 0.00 74 1010.7
20260507131338 39 242 0.0 0.0 0.00 0.00 0.00 78 1010.8
20260507130825 38 242 0.0 0.0 0.00 0.00 0.00 80 1010.8
20260507130323 37 242 0.0 0.0 0.00 0.00 0.00 82 1010.8
20260507125845 37 242 0.0 0.0 0.00 0.00 0.00 83 1010.9
20260507125340 36 242 0.0 0.0 0.00 0.00 0.00 85 1010.9
20260507124838 35 242 0.0 0.0 0.00 0.00 0.00 86 1010.9
20260507124340 35 242 0.0 0.0 0.00 0.00 0.00 87 1011.0
20260507123828 34 242 0.0 0.0 0.00 0.00 0.00 87 1010.9
20260507123315 34 242 0.0 0.0 0.00 0.00 0.00 87 1011.0
20260507122843 33 256 0.0 0.0 0.00 0.00 0.00 87 1010.9
20260507122359 33 322 0.0 0.0 0.00 0.00 0.00 87 1011.0
20260507121823 33 327 0.0 0.0 0.00 0.00 0.00 87 1010.9
20260507121319 32 327 0.0 0.0 0.00 0.00 0.00 87 1010.9
20260507120815 32 342 0.0 0.0 0.00 0.00 0.00 87 1010.8
20260507120322 32 342 0.0 0.0 0.00 0.00 0.00 86 1010.9
20260507115833 32 342 0.0 0.0 0.00 0.00 0.00 86 1010.9
20260507115322 32 342 0.0 0.0 0.00 0.00 0.00 86 1010.9
20260507114838 31 342 0.0 0.0 0.00 0.00 0.00 85 1010.9
20260507114319 31 342 0.0 0.0 0.00 0.00 0.00 85 1010.9
20260507113835 31 342 0.0 0.0 0.00 0.00 0.00 84 1010.9
20260507113322 31 342 0.0 0.0 0.00 0.00 0.00 84 1010.9
20260507112824 32 342 0.0 0.0 0.00 0.00 0.00 84 1011.0
20260507112321 32 342 0.0 0.0 0.00 0.00 0.00 84 1010.9
20260507111858 32 342 0.0 0.0 0.00 0.00 0.00 84 1011.0
20260507111336 32 342 0.0 0.0 0.00 0.00 0.00 84 1010.9
20260507110824 32 342 0.0 0.0 0.00 0.00 0.00 83 1010.8
20260507110341 32 342 0.0 0.0 0.00 0.00 0.00 83 1010.9
20260507105815 32 342 0.0 0.0 0.00 0.00 0.00 83 1010.9
20260507105332 32 342 0.0 0.0 0.00 0.00 0.00 83 1011.0
20260507104849 32 342 0.0 0.0 0.00 0.00 0.00 82 1010.9
20260507104324 32 342 0.0 0.0 0.00 0.00 0.00 82 1010.9
20260507103831 33 342 0.0 0.0 0.00 0.00 0.00 82 1010.9
20260507103324 33 342 0.0 0.0 0.00 0.00 0.00 82 1011.0
20260507102819 33 242 0.0 0.0 0.00 0.00 0.00 81 1011.0
20260507102336 33 242 0.0 0.0 0.00 0.00 0.00 81 1011.0
20260507101823 34 242 0.0 0.0 0.00 0.00 0.00 80 1011.0
20260507101325 34 242 0.0 0.0 0.00 0.00 0.00 81 1010.9
20260507100842 34 242 0.0 0.0 0.00 0.00 0.00 82 1010.9
20260507100337 34 240 0.0 0.0 0.00 0.00 0.00 82 1010.9
20260507095854 34 227 0.0 0.0 0.00 0.00 0.00 82 1010.9
20260507095349 34 227 0.0 0.0 0.00 0.00 0.00 82 1010.9
20260507094845 34 227 0.0 0.0 0.00 0.00 0.00 81 1010.9
20260507094326 34 229 0.0 0.0 0.00 0.00 0.00 81 1010.9
20260507093844 34 230 0.0 0.0 0.00 0.00 0.00 81 1011.0
20260507093329 34 229 0.0 0.0 0.00 0.00 0.00 82 1011.0
20260507092824 34 229 0.0 0.0 0.00 0.00 0.00 82 1011.0
20260507092321 34 229 0.0 0.0 0.00 0.00 0.00 82 1010.9
20260507091829 34 229 0.0 0.0 0.00 0.00 0.00 83 1010.9
20260507091334 34 229 0.0 0.0 0.00 0.00 0.00 83 1011.0
20260507090821 33 229 0.0 0.0 0.00 0.00 0.00 82 1010.9
20260507090338 33 229 0.0 0.0 0.00 0.00 0.00 81 1011.0
20260507085840 33 228 0.0 0.0 0.00 0.00 0.00 80 1011.0
20260507085336 33 228 0.0 0.0 0.00 0.00 0.00 80 1011.0
20260507084823 33 228 0.0 0.0 0.00 0.00 0.00 80 1011.1
20260507084319 33 228 0.0 0.0 0.00 0.00 0.00 79 1011.0
20260507083831 33 228 0.0 0.0 0.00 0.00 0.00 78 1011.1
20260507083319 34 228 0.0 0.0 0.00 0.00 0.00 77 1011.1
20260507082823 34 228 0.0 0.0 0.00 0.00 0.00 77 1011.0
20260507082341 34 228 0.0 0.0 0.00 0.00 0.00 77 1011.1
20260507081848 34 228 0.0 0.0 0.00 0.00 0.00 77 1011.0
20260507081322 34 228 0.0 0.0 0.00 0.00 0.00 77 1011.0
20260507080819 34 228 0.0 0.0 0.00 0.00 0.00 76 1011.0
20260507080333 35 227 0.0 0.0 0.00 0.00 0.00 76 1011.0
20260507075837 34 227 0.0 0.0 0.00 0.00 0.00 75 1011.1
20260507075324 35 227 0.0 0.0 0.00 0.00 0.00 74 1011.0
20260507074840 35 229 0.0 0.0 0.00 0.00 0.00 74 1011.1
20260507074322 35 231 0.0 0.0 0.00 0.00 0.00 75 1011.1
20260507073840 35 238 0.0 0.0 0.00 0.00 0.00 76 1011.1
20260507073335 35 238 0.0 0.0 0.00 0.00 0.00 77 1011.1
20260507072834 35 243 0.0 0.0 0.00 0.00 0.00 77 1011.1
20260507072322 35 245 0.0 0.0 0.00 0.00 0.00 77 1011.0
20260507071838 36 245 0.0 0.0 0.00 0.00 0.00 76 1011.0
20260507071341 36 245 0.0 0.0 0.00 0.00 0.00 75 1011.2
20260507070836 36 248 0.0 0.0 0.00 0.00 0.00 75 1011.3
20260507070322 36 248 0.0 0.0 0.00 0.00 0.00 74 1011.3
20260507065826 36 248 0.0 0.0 0.00 0.00 0.00 74 1011.4
20260507065335 36 254 0.0 0.0 0.00 0.00 0.00 73 1011.4
20260507064851 36 256 0.0 0.0 0.00 0.00 0.00 72 1011.5
20260507064402 36 256 0.0 0.0 0.00 0.00 0.00 72 1011.6
20260507063828 37 256 0.0 0.0 0.00 0.00 0.00 72 1011.6
20260507063324 37 257 0.0 0.0 0.00 0.00 0.00 71 1011.6
20260507062828 37 257 0.0 0.0 0.00 0.00 0.00 69 1011.6
20260507062316 37 257 0.0 0.0 0.00 0.00 0.00 68 1011.7
20260507061833 37 257 0.0 0.0 0.00 0.00 0.00 68 1011.7
20260507061332 38 257 0.0 0.0 0.00 0.00 0.00 68 1011.8
20260507060819 38 257 0.0 0.0 0.00 0.00 0.00 67 1011.8
20260507060318 38 257 0.0 0.0 0.00 0.00 0.00 66 1011.9
20260507055819 38 257 0.0 0.0 0.00 0.00 0.00 65 1011.9
20260507055356 39 257 0.0 0.0 0.00 0.00 0.00 65 1011.9
20260507054822 39 257 0.0 0.0 0.00 0.00 0.00 65 1011.9
20260507054348 39 257 0.0 0.0 0.00 0.00 0.00 65 1011.9
20260507053835 39 258 0.0 0.0 0.00 0.00 0.00 64 1011.9
20260507053330 39 259 0.0 0.0 0.00 0.00 0.00 63 1012.0
20260507052833 39 259 0.0 0.0 0.00 0.00 0.00 63 1012.0
20260507052329 40 258 0.0 0.0 0.00 0.00 0.00 61 1012.0
20260507051817 40 259 0.0 0.0 0.00 0.00 0.00 59 1012.0
20260507051319 40 259 0.0 0.0 0.00 0.00 0.00 59 1012.0
20260507050836 40 259 0.0 0.0 0.00 0.00 0.00 58 1012.1
20260507050327 41 259 0.0 0.0 0.00 0.00 0.00 58 1012.1
20260507045817 41 257 0.0 0.0 0.00 0.00 0.00 58 1012.2
20260507045354 41 257 0.0 0.0 0.00 0.00 0.00 58 1012.2
20260507044820 41 257 0.0 0.0 0.00 0.00 0.00 58 1012.1
20260507044335 41 257 0.0 0.0 0.00 0.00 0.00 58 1012.2
20260507043842 41 257 0.0 0.0 0.00 0.00 0.00 58 1012.2
20260507043319 41 257 0.0 0.0 0.00 0.00 0.00 58 1012.2
20260507042821 41 257 0.0 0.0 0.00 0.00 0.00 57 1012.3
20260507042340 41 257 0.0 0.0 0.00 0.00 0.00 57 1012.3
20260507041826 41 256 0.0 0.0 0.00 0.00 0.00 57 1012.3
20260507041322 41 259 0.0 0.0 0.00 0.00 0.00 58 1012.4
20260507040839 42 259 0.0 0.0 0.00 0.00 0.00 57 1012.4
20260507040326 42 259 0.0 0.0 0.00 0.00 0.00 56 1012.4
20260507035830 42 256 0.0 0.0 0.00 0.00 0.00 55 1012.5
20260507035326 42 256 0.0 0.0 0.00 0.00 0.00 55 1012.5
20260507034834 42 256 0.0 0.0 0.00 0.00 0.00 55 1012.5
20260507034316 42 256 0.0 0.0 0.00 0.00 0.00 55 1012.5
20260507033849 42 256 0.0 0.0 0.00 0.00 0.00 55 1012.5
20260507033324 42 256 0.0 0.0 0.00 0.00 0.00 54 1012.5
20260507032826 42 256 0.0 0.0 0.00 0.00 0.00 54 1012.5
20260507032343 42 256 0.0 0.0 0.00 0.00 0.00 53 1012.5
20260507031829 42 254 0.0 0.0 0.00 0.00 0.00 53 1012.5
20260507031358 42 254 0.0 0.0 0.00 0.00 0.00 52 1012.6
20260507030825 42 263 0.0 0.0 0.00 0.00 0.00 52 1012.6
20260507030342 42 261 0.0 0.0 0.00 0.00 0.00 51 1012.6
20260507025823 43 261 0.0 0.0 0.00 0.00 0.00 51 1012.5
20260507025340 43 261 0.0 0.0 0.00 0.00 0.00 51 1012.6
20260507024847 43 261 0.0 0.0 0.00 0.00 0.00 51 1012.6
20260507024359 43 261 0.0 0.0 0.00 0.00 0.00 51 1012.6
20260507023825 43 267 0.0 0.0 0.00 0.00 0.00 50 1012.6
20260507023321 43 265 0.0 0.0 0.00 0.00 0.00 50 1012.6
20260507022824 43 275 0.0 0.0 0.00 0.00 0.00 50 1012.5
20260507022327 43 284 0.0 0.0 0.00 0.00 0.00 49 1012.5
20260507021823 43 288 0.0 0.0 0.00 0.00 0.00 50 1012.6
20260507021325 43 255 0.0 0.0 0.00 0.00 0.00 49 1012.6
20260507020823 43 290 0.0 0.0 0.00 0.00 0.00 49 1012.6
20260507020339 43 293 0.0 0.0 0.00 0.00 0.00 49 1012.6
20260507015813 43 268 0.0 0.0 0.00 0.00 0.00 49 1012.6
20260507015329 43 288 0.0 0.0 0.00 0.00 0.00 49 1012.5
20260507014828 43 261 0.0 0.0 0.00 0.00 0.00 49 1012.6
20260507014326 43 253 0.0 0.0 0.00 0.00 0.00 49 1012.5
20260507013903 43 266 0.0 0.0 0.00 0.00 0.00 49 1012.5
20260507013349 44 267 0.0 0.0 0.00 0.00 0.00 49 1012.5
20260507012859 44 286 0.0 0.0 0.00 0.00 0.00 48 1012.5
20260507012327 44 286 0.0 0.0 0.00 0.00 0.00 48 1012.5
20260507011823 44 275 0.0 0.0 0.00 0.00 0.00 48 1012.5
20260507011340 44 262 0.0 0.0 0.00 0.00 0.00 48 1012.5
20260507010835 44 306 0.0 0.0 0.00 0.00 0.00 48 1012.5
20260507010323 44 323 0.0 0.0 0.00 0.00 0.00 47 1012.5
20260507005820 45 290 0.0 1.0 0.00 0.00 0.00 49 1012.6
20260507005316 45 298 0.0 1.0 0.00 0.00 0.00 48 1012.6
20260507004824 45 306 0.0 2.0 0.00 0.00 0.00 47 1012.6
20260507004330 45 238 0.0 2.0 0.00 0.00 0.00 47 1012.6
20260507003818 45 309 0.0 1.0 0.00 0.00 0.00 48 1012.6
20260507003334 45 279 0.0 4.0 0.00 0.00 0.00 48 1012.7
20260507002836 45 314 0.0 4.0 0.00 0.00 0.00 47 1012.7
20260507002323 45 330 0.0 4.0 0.00 0.00 0.00 47 1012.7
20260507001820 45 263 0.0 4.0 0.00 0.00 0.00 47 1012.7
20260507001322 45 253 0.0 2.0 0.00 0.00 0.00 48 1012.7
20260507000829 45 261 0.0 6.0 0.00 0.00 0.00 47 1012.8
20260507000325 45 284 0.0 6.0 0.00 0.00 0.00 47 1012.8
20260506235827 45 267 0.0 1.0 0.00 0.00 0.00 47 1012.7
20260506235315 45 292 0.0 1.0 0.00 0.00 0.00 47 1012.7
20260506234831 45 259 0.0 4.0 0.00 0.00 0.00 47 1012.8
20260506234314 45 256 0.0 4.0 0.00 0.00 0.00 46 1012.8
20260506233821 45 263 0.0 4.0 0.00 0.00 0.00 46 1012.8
20260506233318 45 243 0.0 2.0 0.00 0.00 0.00 46 1012.8
20260506232837 45 271 0.0 1.0 0.00 0.00 0.00 47 1012.9
20260506232352 45 242 0.0 1.0 0.00 0.00 0.00 47 1013.0
20260506231846 45 277 0.0 2.0 0.00 0.00 0.00 46 1013.0
20260506231322 46 279 0.0 1.0 0.00 0.00 0.00 47 1013.1
20260506230839 46 284 0.0 0.0 0.00 0.00 0.00 47 1013.0
20260506230327 46 273 0.0 2.0 0.00 0.00 0.00 47 1013.0
20260506225833 45 311 0.0 4.0 0.00 0.00 0.00 47 1013.0
20260506225319 45 286 0.0 4.0 0.00 0.00 0.00 46 1013.0
20260506224836 45 265 0.0 3.0 0.00 0.00 0.00 47 1013.0
20260506224339 45 302 0.0 4.0 0.00 0.00 0.00 47 1013.0
20260506223846 45 307 0.0 4.0 0.00 0.00 0.00 47 1013.0
20260506223321 45 288 0.0 2.0 0.00 0.00 0.00 47 1013.1
20260506222823 45 325 0.0 1.0 0.00 0.00 0.00 47 1013.0
20260506222339 45 288 0.0 2.0 0.00 0.00 0.00 48 1013.1
20260506221827 45 327 0.0 2.0 0.00 0.00 0.00 47 1013.1
20260506221329 45 290 0.0 2.0 0.00 0.00 0.00 46 1013.1
20260506220817 45 307 0.0 2.0 0.00 0.00 0.00 47 1013.1
20260506220314 45 312 0.0 2.0 0.00 0.00 0.00 48 1013.2
20260506215829 45 248 0.0 2.0 0.00 0.00 0.00 47 1013.2
20260506215326 45 317 0.0 4.0 0.00 0.00 0.00 48 1013.2
20260506214813 45 263 0.0 4.0 0.00 0.00 0.00 48 1013.2
20260506214318 45 246 0.0 4.0 0.00 0.00 0.00 47 1013.3
20260506213835 45 308 0.0 1.0 0.00 0.00 0.00 47 1013.3
20260506213322 45 282 0.0 1.0 0.00 0.00 0.00 47 1013.3
20260506212817 45 310 0.0 2.0 0.00 0.00 0.00 49 1013.4
20260506212333 45 290 0.0 4.0 0.00 0.00 0.00 48 1013.4
20260506211849 45 272 1.0 4.0 0.00 0.00 0.00 48 1013.5
20260506211331 45 294 0.0 2.0 0.00 0.00 0.00 48 1013.5
20260506210828 45 260 0.0 5.0 0.00 0.00 0.00 48 1013.6
20260506210316 45 277 0.0 5.0 0.00 0.00 0.00 47 1013.6
20260506205818 45 297 0.0 5.0 0.00 0.00 0.00 48 1013.5
20260506205314 45 278 0.0 5.0 0.00 0.00 0.00 49 1013.7
20260506204831 45 296 0.0 5.0 0.00 0.00 0.00 48 1013.7
20260506204336 45 303 0.0 2.0 0.00 0.00 0.00 48 1013.7
20260506203823 45 217 0.0 4.0 0.00 0.00 0.00 47 1013.8
20260506203336 44 260 0.0 4.0 0.00 0.00 0.00 48 1013.8
20260506202839 44 232 0.0 2.0 0.00 0.00 0.00 48 1013.8
20260506202358 44 281 0.0 2.0 0.00 0.00 0.00 49 1013.9
20260506201823 44 257 0.0 4.0 0.00 0.00 0.00 48 1013.7
20260506201325 44 282 0.0 4.0 0.00 0.00 0.00 50 1013.9
20260506200842 44 296 0.0 4.0 0.00 0.00 0.00 49 1013.8
20260506200349 44 336 0.0 4.0 0.00 0.00 0.00 49 1013.8
20260506195832 44 304 0.0 5.0 0.00 0.00 0.00 48 1013.8
20260506195328 44 355 0.0 5.0 0.00 0.00 0.00 50 1013.9
20260506194816 44 317 0.0 4.0 0.00 0.00 0.00 50 1013.8
20260506194317 44 281 0.0 6.0 0.00 0.00 0.00 50 1013.8
20260506193815 44 323 1.0 6.0 0.00 0.00 0.00 50 1013.9
20260506193329 44 349 0.0 2.0 0.00 0.00 0.00 51 1013.8